Time,TemperatureF,DewpointF,PressureIn,WindDirection,WindDirectionDegrees,WindSpeedMPH,WindSpeedGustMPH,Humidity,HourlyPrecipIn,Conditions,Clouds,dailyrainin,SoftwareType,DateUTC
2013-08-31 00:01:00,81.0,75.4,29.99,NE,45,4.0,-999.0,83,-99.99,,,-99.99,meteohub,2013-08-31 04:01:00,
2013-08-31 00:02:00,81.0,75.4,29.99,NE,45,5.0,-999.0,83,-99.99,,,-99.99,meteohub,2013-08-31 04:02:00,
2013-08-31 00:04:00,81.0,75.4,29.99,NE,45,6.0,-999.0,83,-99.99,,,-99.99,meteohub,2013-08-31 04:04:00,
2013-08-31 00:09:00,81.0,75.0,29.99,NE,45,1.0,-999.0,82,-99.99,,,-99.99,meteohub,2013-08-31 04:09:00,
2013-08-31 00:14:00,81.0,75.0,29.99,NE,45,3.0,-999.0,82,-99.99,,,-99.99,meteohub,2013-08-31 04:14:00,
2013-08-31 00:19:00,81.0,75.7,29.99,NE,45,6.0,-999.0,84,-99.99,,,-99.99,meteohub,2013-08-31 04:19:00,
2013-08-31 00:24:00,81.0,76.1,29.99,NE,45,4.0,-999.0,85,-99.99,,,-99.99,meteohub,2013-08-31 04:24:00,
2013-08-31 00:30:00,81.0,76.5,29.99,NE,45,6.0,-999.0,86,-99.99,,,-99.99,meteohub,2013-08-31 04:30:00,
2013-08-31 00:35:00,81.0,76.6,29.99,NE,45,4.0,-999.0,87,-99.99,,,-99.99,meteohub,2013-08-31 04:35:00,
2013-08-31 00:40:00,80.1,77.5,29.99,NE,45,3.0,-999.0,92,-99.99,,,-99.99,meteohub,2013-08-31 04:40:00,
2013-08-31 00:45:00,80.1,75.9,29.99,NE,45,2.0,-999.0,87,-99.99,,,-99.99,meteohub,2013-08-31 04:45:00,
2013-08-31 00:50:00,80.1,75.9,29.99,NE,45,2.0,-999.0,87,-99.99,,,-99.99,meteohub,2013-08-31 04:50:00,
2013-08-31 00:55:00,80.1,75.9,29.99,NE,45,3.0,-999.0,87,-99.99,,,-99.99,meteohub,2013-08-31 04:55:00,
2013-08-31 01:00:00,80.1,77.9,29.99,NE,45,4.0,-999.0,93,-99.99,,,-99.99,meteohub,2013-08-31 05:00:00,
2013-08-31 01:05:00,80.1,76.1,29.99,NE,45,7.0,-999.0,88,-99.99,,,-99.99,meteohub,2013-08-31 05:05:00,
2013-08-31 01:11:00,80.1,75.9,29.98,NE,45,7.0,-999.0,87,-99.99,,,-99.99,meteohub,2013-08-31 05:11:00,
2013-08-31 01:16:00,80.1,76.1,29.98,NE,45,6.0,-999.0,88,-99.99,,,-99.99,meteohub,2013-08-31 05:16:00,
2013-08-31 01:21:00,80.1,76.1,29.98,NE,45,6.0,-999.0,88,-99.99,,,-99.99,meteohub,2013-08-31 05:21:00,
2013-08-31 01:26:00,80.1,76.1,29.98,NE,45,5.0,-999.0,88,-99.99,,,-99.99,meteohub,2013-08-31 05:26:00,
2013-08-31 01:31:00,80.1,76.1,29.98,NE,45,2.0,-999.0,88,-99.99,,,-99.99,meteohub,2013-08-31 05:31:00,
2013-08-31 01:36:00,80.1,78.3,29.99,NE,45,0.0,-999.0,94,-99.99,,,-99.99,meteohub,2013-08-31 05:36:00,
2013-08-31 01:41:00,80.1,76.1,29.99,NE,45,4.0,-999.0,88,-99.99,,,-99.99,meteohub,2013-08-31 05:41:00,
2013-08-31 01:46:00,80.1,76.1,29.98,NE,45,4.0,-999.0,88,-99.99,,,-99.99,meteohub,2013-08-31 05:46:00,
2013-08-31 01:51:00,80.1,76.1,29.98,NE,45,2.0,-999.0,88,-99.99,,,-99.99,meteohub,2013-08-31 05:51:00,
2013-08-31 01:57:00,79.0,77.4,29.96,NE,45,3.0,-999.0,95,-99.99,,,-99.99,meteohub,2013-08-31 05:57:00,
2013-08-31 02:02:00,79.0,75.4,29.96,NE,45,3.0,-999.0,89,-99.99,,,-99.99,meteohub,2013-08-31 06:02:00,
2013-08-31 02:07:00,79.0,75.2,29.98,NE,45,2.0,-999.0,88,-99.99,,,-99.99,meteohub,2013-08-31 06:07:00,
2013-08-31 02:12:00,79.0,75.4,29.98,NE,45,0.0,-999.0,89,-99.99,,,-99.99,meteohub,2013-08-31 06:12:00,
2013-08-31 02:17:00,79.0,75.2,29.98,NNW,337,2.0,-999.0,88,-99.99,,,-99.99,meteohub,2013-08-31 06:17:00,
2013-08-31 02:22:00,79.0,75.2,29.98,West,270,1.0,-999.0,88,-99.99,,,-99.99,meteohub,2013-08-31 06:22:00,
2013-08-31 02:27:00,79.0,75.4,29.98,NNW,337,4.0,-999.0,89,-99.99,,,-99.99,meteohub,2013-08-31 06:27:00,
2013-08-31 02:32:00,78.1,76.5,29.98,NW,315,3.0,-999.0,95,-99.99,,,-99.99,meteohub,2013-08-31 06:32:00,
2013-08-31 02:37:00,79.0,75.2,29.98,NW,315,6.0,-999.0,88,-99.99,,,-99.99,meteohub,2013-08-31 06:37:00,
2013-08-31 02:42:00,79.0,74.8,29.96,NE,45,1.0,-999.0,87,-99.99,,,-99.99,meteohub,2013-08-31 06:42:00,
2013-08-31 02:47:00,79.0,75.2,29.96,NE,45,0.0,-999.0,88,-99.99,,,-99.99,meteohub,2013-08-31 06:47:00,
2013-08-31 02:52:00,79.0,74.8,29.96,NE,45,2.0,-999.0,87,-99.99,,,-99.99,meteohub,2013-08-31 06:52:00,
2013-08-31 02:57:00,79.0,74.8,29.96,NE,45,2.0,-999.0,87,-99.99,,,-99.99,meteohub,2013-08-31 06:57:00,
2013-08-31 03:02:00,79.0,74.8,29.96,NE,45,0.0,-999.0,87,-99.99,,,-99.99,meteohub,2013-08-31 07:02:00,
2013-08-31 03:07:00,78.1,75.9,29.96,NE,45,0.0,-999.0,93,-99.99,,,-99.99,meteohub,2013-08-31 07:07:00,
2013-08-31 03:12:00,79.0,74.8,29.96,NE,45,2.0,-999.0,87,-99.99,,,-99.99,meteohub,2013-08-31 07:12:00,
2013-08-31 03:17:00,79.0,74.8,29.96,NE,45,0.0,-999.0,87,-99.99,,,-99.99,meteohub,2013-08-31 07:17:00,
2013-08-31 03:22:00,79.0,75.2,29.96,NE,45,2.0,-999.0,88,-99.99,,,-99.99,meteohub,2013-08-31 07:22:00,
2013-08-31 03:27:00,79.0,74.8,29.96,NE,45,0.0,-999.0,87,-99.99,,,-99.99,meteohub,2013-08-31 07:27:00,
2013-08-31 03:32:00,79.0,75.2,29.96,NE,45,0.0,-999.0,88,-99.99,,,-99.99,meteohub,2013-08-31 07:32:00,
2013-08-31 03:37:00,79.0,75.2,29.96,NE,45,2.0,-999.0,88,-99.99,,,-99.99,meteohub,2013-08-31 07:37:00,
2013-08-31 03:42:00,78.1,76.3,29.96,NE,45,2.0,-999.0,94,-99.99,,,-99.99,meteohub,2013-08-31 07:42:00,
2013-08-31 03:47:00,79.0,75.2,29.96,NE,45,1.0,-999.0,88,-99.99,,,-99.99,meteohub,2013-08-31 07:47:00,
2013-08-31 03:52:00,79.0,75.2,29.96,NE,45,3.0,-999.0,88,-99.99,,,-99.99,meteohub,2013-08-31 07:52:00,
2013-08-31 03:57:00,79.0,75.4,29.96,NE,45,1.0,-999.0,89,-99.99,,,-99.99,meteohub,2013-08-31 07:57:00,
2013-08-31 04:02:00,79.0,75.2,29.96,NE,45,1.0,-999.0,88,-99.99,,,-99.99,meteohub,2013-08-31 08:02:00,
2013-08-31 04:07:00,79.0,75.4,29.95,NE,45,5.0,-999.0,89,-99.99,,,-99.99,meteohub,2013-08-31 08:07:00,
2013-08-31 04:12:00,79.0,75.7,29.95,NE,45,6.0,-999.0,90,-99.99,,,-99.99,meteohub,2013-08-31 08:12:00,
2013-08-31 04:17:00,79.0,78.1,29.95,NE,45,6.0,-999.0,97,-99.99,,,-99.99,meteohub,2013-08-31 08:17:00,
2013-08-31 04:22:00,79.0,75.7,29.95,SE,135,4.0,-999.0,90,-99.99,,,-99.99,meteohub,2013-08-31 08:22:00,
2013-08-31 04:27:00,80.1,77.2,29.95,SE,135,6.0,-999.0,91,-99.99,,,-99.99,meteohub,2013-08-31 08:27:00,
2013-08-31 04:32:00,80.1,76.8,29.95,SE,135,6.0,-999.0,90,-99.99,,,-99.99,meteohub,2013-08-31 08:32:00,
2013-08-31 04:37:00,80.1,75.9,29.95,SE,135,6.0,-999.0,87,-99.99,,,-99.99,meteohub,2013-08-31 08:37:00,
2013-08-31 04:42:00,80.1,75.9,29.95,SE,135,4.0,-999.0,87,-99.99,,,-99.99,meteohub,2013-08-31 08:42:00,
2013-08-31 04:47:00,80.1,75.9,29.95,SE,135,0.0,-999.0,87,-99.99,,,-99.99,meteohub,2013-08-31 08:47:00,
2013-08-31 04:52:00,79.0,76.8,29.95,NE,45,3.0,-999.0,93,-99.99,,,-99.99,meteohub,2013-08-31 08:52:00,
2013-08-31 04:57:00,80.1,75.9,29.95,NE,45,3.0,-999.0,87,-99.99,,,-99.99,meteohub,2013-08-31 08:57:00,
2013-08-31 05:02:00,79.0,75.2,29.95,NE,45,2.0,-999.0,88,-99.99,,,-99.99,meteohub,2013-08-31 09:02:00,
2013-08-31 05:07:00,79.0,75.7,29.95,NE,45,3.0,-999.0,90,-99.99,,,-99.99,meteohub,2013-08-31 09:07:00,
2013-08-31 05:12:00,79.0,75.7,29.95,NE,45,0.0,-999.0,90,-99.99,,,-99.99,meteohub,2013-08-31 09:12:00,
2013-08-31 05:17:00,79.0,75.7,29.95,NE,45,1.0,-999.0,90,-99.99,,,-99.99,meteohub,2013-08-31 09:17:00,
2013-08-31 05:22:00,79.0,75.7,29.95,NE,45,1.0,-999.0,90,-99.99,,,-99.99,meteohub,2013-08-31 09:22:00,
2013-08-31 05:27:00,78.1,76.8,29.95,NE,45,1.0,-999.0,96,-99.99,,,-99.99,meteohub,2013-08-31 09:27:00,
2013-08-31 05:32:00,80.1,76.5,29.95,SE,135,5.0,-999.0,89,-99.99,,,-99.99,meteohub,2013-08-31 09:32:00,
2013-08-31 05:37:00,80.1,75.2,29.95,SE,135,7.0,-999.0,85,-99.99,,,-99.99,meteohub,2013-08-31 09:37:00,
2013-08-31 05:42:00,81.0,75.7,29.95,SE,135,6.0,-999.0,84,-99.99,,,-99.99,meteohub,2013-08-31 09:42:00,
2013-08-31 05:47:00,81.0,74.7,29.95,SE,135,6.0,-999.0,81,-99.99,,,-99.99,meteohub,2013-08-31 09:47:00,
2013-08-31 05:52:00,81.0,74.7,29.95,SE,135,6.0,-999.0,81,-99.99,,,-99.99,meteohub,2013-08-31 09:52:00,
2013-08-31 05:57:00,81.0,74.1,29.95,SE,135,9.0,-999.0,80,-99.99,,,-99.99,meteohub,2013-08-31 09:57:00,
2013-08-31 06:02:00,80.1,75.6,29.96,SE,135,6.0,-999.0,86,-99.99,,,-99.99,meteohub,2013-08-31 10:02:00,
2013-08-31 06:07:00,81.0,73.8,29.96,SE,135,6.0,-999.0,79,-99.99,,,-99.99,meteohub,2013-08-31 10:07:00,
2013-08-31 06:12:00,81.0,73.0,29.96,SE,135,7.0,-999.0,77,-99.99,,,-99.99,meteohub,2013-08-31 10:12:00,
2013-08-31 06:17:00,81.0,73.4,29.95,SE,135,7.0,-999.0,78,-99.99,,,-99.99,meteohub,2013-08-31 10:17:00,
2013-08-31 06:22:00,81.0,72.3,29.95,SE,135,8.0,-999.0,75,-99.99,,,-99.99,meteohub,2013-08-31 10:22:00,
2013-08-31 06:27:00,81.0,72.7,29.96,SE,135,7.0,-999.0,76,-99.99,,,-99.99,meteohub,2013-08-31 10:27:00,
2013-08-31 06:32:00,81.0,73.4,29.96,SE,135,7.0,-999.0,78,-99.99,,,-99.99,meteohub,2013-08-31 10:32:00,
2013-08-31 06:37:00,80.1,74.5,29.96,SE,135,6.0,-999.0,83,-99.99,,,-99.99,meteohub,2013-08-31 10:37:00,
2013-08-31 06:42:00,80.1,73.0,29.96,SE,135,5.0,-999.0,79,-99.99,,,-99.99,meteohub,2013-08-31 10:42:00,
2013-08-31 06:47:00,81.0,73.8,29.96,SE,135,3.0,-999.0,79,-99.99,,,-99.99,meteohub,2013-08-31 10:47:00,
2013-08-31 06:52:00,80.1,73.0,29.96,SE,135,4.0,-999.0,79,-99.99,,,-99.99,meteohub,2013-08-31 10:52:00,
2013-08-31 06:57:00,80.1,73.0,29.96,SSE,157,4.0,-999.0,79,-99.99,,,-99.99,meteohub,2013-08-31 10:57:00,
2013-08-31 07:02:00,80.1,73.0,29.96,SSE,157,3.0,-999.0,79,-99.99,,,-99.99,meteohub,2013-08-31 11:02:00,
2013-08-31 07:07:00,80.1,73.0,29.96,SE,135,6.0,-999.0,79,-99.99,,,-99.99,meteohub,2013-08-31 11:07:00,
2013-08-31 07:12:00,80.1,74.8,29.96,SE,135,2.0,-999.0,84,-99.99,,,-99.99,meteohub,2013-08-31 11:12:00,
2013-08-31 07:17:00,80.1,72.5,29.96,SE,135,5.0,-999.0,78,-99.99,,,-99.99,meteohub,2013-08-31 11:17:00,
2013-08-31 07:22:00,81.0,73.8,29.96,SE,135,5.0,-999.0,79,-99.99,,,-99.99,meteohub,2013-08-31 11:22:00,
2013-08-31 07:27:00,81.0,74.7,29.96,SE,135,6.0,-999.0,81,-99.99,,,-99.99,meteohub,2013-08-31 11:27:00,
2013-08-31 07:32:00,81.0,75.0,29.96,SE,135,6.0,-999.0,82,-99.99,,,-99.99,meteohub,2013-08-31 11:32:00,
2013-08-31 07:37:00,81.0,74.7,29.96,SE,135,5.0,-999.0,81,-99.99,,,-99.99,meteohub,2013-08-31 11:37:00,
2013-08-31 07:42:00,81.0,73.8,29.96,SE,135,7.0,-999.0,79,-99.99,,,-99.99,meteohub,2013-08-31 11:42:00,
2013-08-31 07:47:00,81.0,75.7,29.96,SE,135,7.0,-999.0,84,-99.99,,,-99.99,meteohub,2013-08-31 11:47:00,
2013-08-31 07:52:00,81.0,73.8,29.96,SE,135,5.0,-999.0,79,-99.99,,,-99.99,meteohub,2013-08-31 11:52:00,
2013-08-31 07:57:00,82.0,75.6,29.98,SE,135,4.0,-999.0,81,-99.99,,,-99.99,meteohub,2013-08-31 11:57:00,
2013-08-31 08:02:00,82.0,75.6,29.98,SE,135,4.0,-999.0,81,-99.99,,,-99.99,meteohub,2013-08-31 12:02:00,
2013-08-31 08:07:00,82.0,74.8,29.98,SE,135,6.0,-999.0,79,-99.99,,,-99.99,meteohub,2013-08-31 12:07:00,
2013-08-31 08:12:00,82.0,74.8,29.99,SE,135,5.0,-999.0,79,-99.99,,,-99.99,meteohub,2013-08-31 12:12:00,
2013-08-31 08:17:00,82.0,73.4,29.99,SE,135,4.0,-999.0,75,-99.99,,,-99.99,meteohub,2013-08-31 12:17:00,
2013-08-31 08:22:00,82.9,75.4,29.99,SE,135,4.0,-999.0,78,-99.99,,,-99.99,meteohub,2013-08-31 12:22:00,
2013-08-31 08:27:00,82.9,75.4,29.99,SE,135,7.0,-999.0,78,-99.99,,,-99.99,meteohub,2013-08-31 12:27:00,
2013-08-31 08:32:00,82.0,74.8,29.99,SE,135,4.0,-999.0,79,-99.99,,,-99.99,meteohub,2013-08-31 12:32:00,
2013-08-31 08:37:00,82.9,75.7,29.99,SE,135,6.0,-999.0,79,-99.99,,,-99.99,meteohub,2013-08-31 12:37:00,
2013-08-31 08:42:00,82.9,75.0,29.99,SE,135,4.0,-999.0,77,-99.99,,,-99.99,meteohub,2013-08-31 12:42:00,
2013-08-31 08:47:00,82.9,75.7,30.00,NE,45,7.0,-999.0,79,-99.99,,,-99.99,meteohub,2013-08-31 12:47:00,
2013-08-31 08:52:00,82.9,75.7,30.01,SE,135,6.0,-999.0,79,-99.99,,,-99.99,meteohub,2013-08-31 12:52:00,
2013-08-31 08:57:00,82.9,76.5,30.01,SE,135,8.0,-999.0,81,-99.99,,,-99.99,meteohub,2013-08-31 12:57:00,
2013-08-31 09:02:00,82.9,73.4,30.01,SE,135,6.0,-999.0,73,-99.99,,,-99.99,meteohub,2013-08-31 13:02:00,
2013-08-31 09:07:00,82.9,72.5,30.01,SE,135,6.0,-999.0,71,-99.99,,,-99.99,meteohub,2013-08-31 13:07:00,
2013-08-31 09:12:00,84.0,73.6,30.01,SE,135,10.0,-999.0,71,-99.99,,,-99.99,meteohub,2013-08-31 13:12:00,
2013-08-31 09:17:00,84.0,75.2,30.01,SE,135,10.0,-999.0,75,-99.99,,,-99.99,meteohub,2013-08-31 13:17:00,
2013-08-31 09:22:00,82.9,73.0,30.01,SE,135,10.0,-999.0,72,-99.99,,,-99.99,meteohub,2013-08-31 13:22:00,
2013-08-31 09:28:00,82.9,73.0,30.01,SE,135,9.0,-999.0,72,-99.99,,,-99.99,meteohub,2013-08-31 13:28:00,
2013-08-31 09:33:00,82.9,72.1,30.01,SE,135,8.0,-999.0,70,-99.99,,,-99.99,meteohub,2013-08-31 13:33:00,
2013-08-31 09:38:00,84.0,73.6,30.01,SE,135,9.0,-999.0,71,-99.99,,,-99.99,meteohub,2013-08-31 13:38:00,
2013-08-31 09:43:00,82.9,72.1,30.01,SE,135,5.0,-999.0,70,-99.99,,,-99.99,meteohub,2013-08-31 13:43:00,
2013-08-31 09:48:00,84.0,73.2,30.01,SSW,202,8.0,-999.0,70,-99.99,,,-99.99,meteohub,2013-08-31 13:48:00,
2013-08-31 09:53:00,84.0,74.5,30.01,South,180,4.0,-999.0,73,-99.99,,,-99.99,meteohub,2013-08-31 13:53:00,
2013-08-31 09:58:00,82.9,72.1,30.01,South,180,6.0,-999.0,70,-99.99,,,-99.99,meteohub,2013-08-31 13:58:00,
2013-08-31 10:03:00,82.9,71.8,30.01,SE,135,7.0,-999.0,69,-99.99,,,-99.99,meteohub,2013-08-31 14:03:00,
2013-08-31 10:08:00,84.0,72.3,30.01,SE,135,7.0,-999.0,68,-99.99,,,-99.99,meteohub,2013-08-31 14:08:00,
2013-08-31 10:13:00,84.0,72.3,30.01,SW,225,7.0,-999.0,68,-99.99,,,-99.99,meteohub,2013-08-31 14:13:00,
2013-08-31 10:18:00,82.9,72.1,30.01,SSW,202,9.0,-999.0,70,-99.99,,,-99.99,meteohub,2013-08-31 14:18:00,
2013-08-31 10:23:00,82.9,72.5,30.03,SE,135,5.0,-999.0,71,-99.99,,,-99.99,meteohub,2013-08-31 14:23:00,
2013-08-31 10:28:00,84.0,72.3,30.03,South,180,7.0,-999.0,68,-99.99,,,-99.99,meteohub,2013-08-31 14:28:00,
2013-08-31 10:33:00,82.9,71.8,30.03,South,180,7.0,-999.0,69,-99.99,,,-99.99,meteohub,2013-08-31 14:33:00,
2013-08-31 10:39:00,82.9,71.2,30.04,SW,225,8.0,-999.0,68,-99.99,,,-99.99,meteohub,2013-08-31 14:39:00,
2013-08-31 10:44:00,82.9,71.8,30.04,SSE,157,6.0,-999.0,69,-99.99,,,-99.99,meteohub,2013-08-31 14:44:00,
2013-08-31 10:49:00,84.0,72.7,30.03,South,180,5.0,-999.0,69,-99.99,,,-99.99,meteohub,2013-08-31 14:49:00,
2013-08-31 10:54:00,84.0,72.3,30.03,SSW,202,6.0,-999.0,68,-99.99,,,-99.99,meteohub,2013-08-31 14:54:00,
2013-08-31 10:59:00,84.9,73.2,30.03,SSW,202,7.0,-999.0,68,-99.99,,,-99.99,meteohub,2013-08-31 14:59:00,
2013-08-31 11:04:00,84.9,73.2,30.03,South,180,8.0,-999.0,68,-99.99,,,-99.99,meteohub,2013-08-31 15:04:00,
2013-08-31 11:09:00,84.9,72.7,30.03,SSW,202,6.0,-999.0,67,-99.99,,,-99.99,meteohub,2013-08-31 15:09:00,
2013-08-31 11:14:00,84.9,72.7,30.03,SW,225,8.0,-999.0,67,-99.99,,,-99.99,meteohub,2013-08-31 15:14:00,
2013-08-31 11:19:00,84.9,72.3,30.03,SW,225,7.0,-999.0,66,-99.99,,,-99.99,meteohub,2013-08-31 15:19:00,
2013-08-31 11:24:00,84.0,72.3,30.01,SW,225,4.0,-999.0,68,-99.99,,,-99.99,meteohub,2013-08-31 15:24:00,
2013-08-31 11:29:00,84.0,72.0,30.01,SSW,202,7.0,-999.0,67,-99.99,,,-99.99,meteohub,2013-08-31 15:29:00,
2013-08-31 11:34:00,84.0,72.3,30.01,SW,225,10.0,-999.0,68,-99.99,,,-99.99,meteohub,2013-08-31 15:34:00,
2013-08-31 11:40:00,84.0,73.9,30.01,WSW,247,9.0,-999.0,72,-99.99,,,-99.99,meteohub,2013-08-31 15:40:00,
2013-08-31 11:45:00,82.9,73.0,30.01,WSW,247,9.0,-999.0,72,-99.99,,,-99.99,meteohub,2013-08-31 15:45:00,
2013-08-31 11:50:00,82.9,73.0,30.01,West,270,8.0,-999.0,72,-99.99,,,-99.99,meteohub,2013-08-31 15:50:00,
2013-08-31 11:55:00,82.9,73.0,30.03,WSW,247,9.0,-999.0,72,-99.99,,,-99.99,meteohub,2013-08-31 15:55:00,
2013-08-31 12:00:00,82.9,73.8,30.03,WSW,247,6.0,-999.0,74,-99.99,,,-99.99,meteohub,2013-08-31 16:00:00,
2013-08-31 12:05:00,82.9,72.5,30.03,WSW,247,9.0,-999.0,71,-99.99,,,-99.99,meteohub,2013-08-31 16:05:00,
2013-08-31 12:10:00,82.9,73.0,30.03,WSW,247,10.0,-999.0,72,-99.99,,,-99.99,meteohub,2013-08-31 16:10:00,
2013-08-31 12:15:00,82.9,72.5,30.03,West,270,7.0,-999.0,71,-99.99,,,-99.99,meteohub,2013-08-31 16:15:00,
2013-08-31 12:20:00,84.0,75.2,30.03,West,270,9.0,-999.0,75,-99.99,,,-99.99,meteohub,2013-08-31 16:20:00,
2013-08-31 12:25:00,82.9,72.5,30.03,West,270,7.0,-999.0,71,-99.99,,,-99.99,meteohub,2013-08-31 16:25:00,
2013-08-31 12:30:00,82.9,73.0,30.01,West,270,9.0,-999.0,72,-99.99,,,-99.99,meteohub,2013-08-31 16:30:00,
2013-08-31 12:35:00,82.9,72.5,30.01,WSW,247,8.0,-999.0,71,-99.99,,,-99.99,meteohub,2013-08-31 16:35:00,
2013-08-31 12:40:00,84.0,75.2,30.01,West,270,10.0,-999.0,75,-99.99,,,-99.99,meteohub,2013-08-31 16:40:00,
2013-08-31 12:45:00,82.9,71.2,30.01,WSW,247,7.0,-999.0,68,-99.99,,,-99.99,meteohub,2013-08-31 16:45:00,
2013-08-31 12:51:00,82.9,72.1,30.01,WSW,247,6.0,-999.0,70,-99.99,,,-99.99,meteohub,2013-08-31 16:51:00,
2013-08-31 12:56:00,82.9,73.0,30.01,West,270,11.0,-999.0,72,-99.99,,,-99.99,meteohub,2013-08-31 16:56:00,
2013-08-31 13:01:00,82.9,72.1,30.01,WSW,247,9.0,-999.0,70,-99.99,,,-99.99,meteohub,2013-08-31 17:01:00,
2013-08-31 13:06:00,84.0,73.6,30.01,SSW,202,6.0,-999.0,71,-99.99,,,-99.99,meteohub,2013-08-31 17:06:00,
2013-08-31 13:11:00,84.0,73.6,30.01,WSW,247,7.0,-999.0,71,-99.99,,,-99.99,meteohub,2013-08-31 17:11:00,
2013-08-31 13:16:00,84.0,73.9,30.01,West,270,10.0,-999.0,72,-99.99,,,-99.99,meteohub,2013-08-31 17:16:00,
2013-08-31 13:21:00,84.0,72.3,30.01,WSW,247,10.0,-999.0,68,-99.99,,,-99.99,meteohub,2013-08-31 17:21:00,
2013-08-31 13:26:00,84.0,73.9,30.01,West,270,8.0,-999.0,72,-99.99,,,-99.99,meteohub,2013-08-31 17:26:00,
2013-08-31 13:31:00,84.0,73.9,30.01,WSW,247,7.0,-999.0,72,-99.99,,,-99.99,meteohub,2013-08-31 17:31:00,
2013-08-31 13:36:00,84.0,74.8,30.01,SW,225,7.0,-999.0,74,-99.99,,,-99.99,meteohub,2013-08-31 17:36:00,
2013-08-31 13:41:00,84.0,72.3,30.01,SW,225,8.0,-999.0,68,-99.99,,,-99.99,meteohub,2013-08-31 17:41:00,
2013-08-31 13:46:00,84.0,73.9,30.01,WSW,247,9.0,-999.0,72,-99.99,,,-99.99,meteohub,2013-08-31 17:46:00,
2013-08-31 13:52:00,84.0,73.2,30.01,West,270,10.0,-999.0,70,-99.99,,,-99.99,meteohub,2013-08-31 17:52:00,
2013-08-31 13:57:00,82.9,71.2,30.01,West,270,10.0,-999.0,68,-99.99,,,-99.99,meteohub,2013-08-31 17:57:00,
2013-08-31 14:02:00,82.9,72.5,30.01,WSW,247,10.0,-999.0,71,-99.99,,,-99.99,meteohub,2013-08-31 18:02:00,
2013-08-31 14:07:00,82.9,72.1,30.01,WSW,247,5.0,-999.0,70,-99.99,,,-99.99,meteohub,2013-08-31 18:07:00,
2013-08-31 14:12:00,84.0,75.6,30.01,WSW,247,9.0,-999.0,76,-99.99,,,-99.99,meteohub,2013-08-31 18:12:00,
2013-08-31 14:17:00,82.9,73.0,30.01,West,270,6.0,-999.0,72,-99.99,,,-99.99,meteohub,2013-08-31 18:17:00,
2013-08-31 14:22:00,84.0,72.3,30.01,SW,225,7.0,-999.0,68,-99.99,,,-99.99,meteohub,2013-08-31 18:22:00,
2013-08-31 14:27:00,82.9,71.8,30.01,WSW,247,9.0,-999.0,69,-99.99,,,-99.99,meteohub,2013-08-31 18:27:00,
2013-08-31 14:32:00,82.9,72.1,30.01,WSW,247,10.0,-999.0,70,-99.99,,,-99.99,meteohub,2013-08-31 18:32:00,
2013-08-31 14:37:00,82.9,71.8,30.00,WSW,247,11.0,-999.0,69,-99.99,,,-99.99,meteohub,2013-08-31 18:37:00,
2013-08-31 14:42:00,82.9,73.0,30.00,West,270,10.0,-999.0,72,-99.99,,,-99.99,meteohub,2013-08-31 18:42:00,
2013-08-31 14:47:00,82.9,73.4,30.00,WSW,247,9.0,-999.0,73,-99.99,,,-99.99,meteohub,2013-08-31 18:47:00,
2013-08-31 14:52:00,82.9,72.5,30.00,WSW,247,10.0,-999.0,71,-99.99,,,-99.99,meteohub,2013-08-31 18:52:00,
2013-08-31 14:57:00,82.9,71.2,30.00,WSW,247,10.0,-999.0,68,-99.99,,,-99.99,meteohub,2013-08-31 18:57:00,
2013-08-31 15:02:00,82.9,71.8,30.00,WSW,247,7.0,-999.0,69,-99.99,,,-99.99,meteohub,2013-08-31 19:02:00,
2013-08-31 15:07:00,82.9,73.0,30.00,West,270,8.0,-999.0,72,-99.99,,,-99.99,meteohub,2013-08-31 19:07:00,
2013-08-31 15:12:00,82.9,72.5,30.00,WSW,247,7.0,-999.0,71,-99.99,,,-99.99,meteohub,2013-08-31 19:12:00,
2013-08-31 15:17:00,82.9,72.5,29.99,WSW,247,10.0,-999.0,71,-99.99,,,-99.99,meteohub,2013-08-31 19:17:00,
2013-08-31 15:22:00,82.9,73.4,29.99,WSW,247,9.0,-999.0,73,-99.99,,,-99.99,meteohub,2013-08-31 19:22:00,
2013-08-31 15:27:00,82.9,71.2,29.99,WSW,247,9.0,-999.0,68,-99.99,,,-99.99,meteohub,2013-08-31 19:27:00,
2013-08-31 15:32:00,84.0,73.2,29.99,WSW,247,10.0,-999.0,70,-99.99,,,-99.99,meteohub,2013-08-31 19:32:00,
2013-08-31 15:37:00,84.0,73.2,29.99,SSW,202,6.0,-999.0,70,-99.99,,,-99.99,meteohub,2013-08-31 19:37:00,
2013-08-31 15:42:00,84.0,73.9,29.99,West,270,9.0,-999.0,72,-99.99,,,-99.99,meteohub,2013-08-31 19:42:00,
2013-08-31 15:47:00,84.0,73.9,29.98,West,270,10.0,-999.0,72,-99.99,,,-99.99,meteohub,2013-08-31 19:47:00,
2013-08-31 15:52:00,82.9,70.9,29.96,West,270,8.0,-999.0,67,-99.99,,,-99.99,meteohub,2013-08-31 19:52:00,
2013-08-31 15:57:00,84.0,73.9,29.96,West,270,10.0,-999.0,72,-99.99,,,-99.99,meteohub,2013-08-31 19:57:00,
2013-08-31 16:02:00,82.9,72.1,29.96,WSW,247,7.0,-999.0,70,-99.99,,,-99.99,meteohub,2013-08-31 20:02:00,
2013-08-31 16:07:00,84.0,73.9,29.96,WSW,247,12.0,-999.0,72,-99.99,,,-99.99,meteohub,2013-08-31 20:07:00,
2013-08-31 16:12:00,82.9,71.2,29.96,West,270,8.0,-999.0,68,-99.99,,,-99.99,meteohub,2013-08-31 20:12:00,
2013-08-31 16:17:00,84.0,71.4,29.96,SW,225,6.0,-999.0,66,-99.99,,,-99.99,meteohub,2013-08-31 20:17:00,
2013-08-31 16:22:00,84.0,73.2,29.96,West,270,9.0,-999.0,70,-99.99,,,-99.99,meteohub,2013-08-31 20:22:00,
2013-08-31 16:27:00,84.0,73.2,29.96,WSW,247,7.0,-999.0,70,-99.99,,,-99.99,meteohub,2013-08-31 20:27:00,
2013-08-31 16:32:00,84.0,74.8,29.96,West,270,8.0,-999.0,74,-99.99,,,-99.99,meteohub,2013-08-31 20:32:00,
2013-08-31 16:37:00,84.0,73.2,29.96,West,270,8.0,-999.0,70,-99.99,,,-99.99,meteohub,2013-08-31 20:37:00,
2013-08-31 16:42:00,84.0,73.2,29.96,West,270,7.0,-999.0,70,-99.99,,,-99.99,meteohub,2013-08-31 20:42:00,
2013-08-31 16:47:00,84.0,72.3,29.96,West,270,7.0,-999.0,68,-99.99,,,-99.99,meteohub,2013-08-31 20:47:00,
2013-08-31 16:52:00,84.0,72.7,29.96,WSW,247,8.0,-999.0,69,-99.99,,,-99.99,meteohub,2013-08-31 20:52:00,
2013-08-31 16:57:00,84.0,71.1,29.96,West,270,3.0,-999.0,65,-99.99,,,-99.99,meteohub,2013-08-31 20:57:00,
2013-08-31 17:02:00,84.9,73.2,29.96,West,270,9.0,-999.0,68,-99.99,,,-99.99,meteohub,2013-08-31 21:02:00,
2013-08-31 17:07:00,84.9,72.7,29.96,West,270,7.0,-999.0,67,-99.99,,,-99.99,meteohub,2013-08-31 21:07:00,
2013-08-31 17:12:00,84.0,72.0,29.96,WSW,247,7.0,-999.0,67,-99.99,,,-99.99,meteohub,2013-08-31 21:12:00,
2013-08-31 17:17:00,84.0,72.3,29.96,WNW,292,5.0,-999.0,68,-99.99,,,-99.99,meteohub,2013-08-31 21:17:00,
2013-08-31 17:22:00,84.0,72.0,29.96,WSW,247,5.0,-999.0,67,-99.99,,,-99.99,meteohub,2013-08-31 21:22:00,
2013-08-31 17:27:00,84.9,71.8,29.96,West,270,4.0,-999.0,65,-99.99,,,-99.99,meteohub,2013-08-31 21:27:00,
2013-08-31 17:32:00,84.0,72.3,29.98,SW,225,9.0,-999.0,68,-99.99,,,-99.99,meteohub,2013-08-31 21:32:00,
2013-08-31 17:37:00,84.0,72.0,29.98,SW,225,6.0,-999.0,67,-99.99,,,-99.99,meteohub,2013-08-31 21:37:00,
2013-08-31 17:42:00,84.0,72.3,29.96,WSW,247,6.0,-999.0,68,-99.99,,,-99.99,meteohub,2013-08-31 21:42:00,
2013-08-31 17:47:00,84.0,73.2,29.96,SW,225,7.0,-999.0,70,-99.99,,,-99.99,meteohub,2013-08-31 21:47:00,
2013-08-31 17:52:00,84.0,73.2,29.96,West,270,6.0,-999.0,70,-99.99,,,-99.99,meteohub,2013-08-31 21:52:00,
2013-08-31 17:57:00,84.0,73.2,29.96,West,270,7.0,-999.0,70,-99.99,,,-99.99,meteohub,2013-08-31 21:57:00,
2013-08-31 18:02:00,84.9,73.6,29.96,WSW,247,3.0,-999.0,69,-99.99,,,-99.99,meteohub,2013-08-31 22:02:00,
2013-08-31 18:07:00,84.0,72.3,29.96,SW,225,7.0,-999.0,68,-99.99,,,-99.99,meteohub,2013-08-31 22:07:00,
2013-08-31 18:13:00,84.0,73.2,29.98,WSW,247,5.0,-999.0,70,-99.99,,,-99.99,meteohub,2013-08-31 22:13:00,
2013-08-31 18:18:00,84.0,73.2,29.98,West,270,5.0,-999.0,70,-99.99,,,-99.99,meteohub,2013-08-31 22:18:00,
2013-08-31 18:23:00,84.0,73.2,29.98,West,270,6.0,-999.0,70,-99.99,,,-99.99,meteohub,2013-08-31 22:23:00,
2013-08-31 18:28:00,84.0,73.2,29.98,West,270,0.0,-999.0,70,-99.99,,,-99.99,meteohub,2013-08-31 22:28:00,
2013-08-31 18:33:00,82.9,70.9,29.99,NE,45,7.0,-999.0,67,-99.99,,,-99.99,meteohub,2013-08-31 22:33:00,
2013-08-31 18:38:00,82.0,72.1,29.98,NE,45,9.0,-999.0,72,-99.99,,,-99.99,meteohub,2013-08-31 22:38:00,
2013-08-31 18:43:00,81.0,71.4,29.98,NE,45,5.0,-999.0,73,-99.99,,,-99.99,meteohub,2013-08-31 22:43:00,
2013-08-31 18:48:00,81.0,72.0,29.98,SE,135,13.0,-999.0,74,-99.99,,,-99.99,meteohub,2013-08-31 22:48:00,
2013-08-31 18:53:00,81.0,72.7,29.98,NE,45,9.0,-999.0,76,-99.99,,,-99.99,meteohub,2013-08-31 22:53:00,
2013-08-31 18:58:00,81.0,72.7,29.98,NE,45,12.0,-999.0,76,-99.99,,,-99.99,meteohub,2013-08-31 22:58:00,
2013-08-31 19:03:00,80.1,70.2,29.98,NE,45,10.0,-999.0,72,-99.99,,,-99.99,meteohub,2013-08-31 23:03:00,
2013-08-31 19:09:00,80.1,71.1,29.98,SE,135,10.0,-999.0,74,-99.99,,,-99.99,meteohub,2013-08-31 23:09:00,
2013-08-31 19:14:00,80.1,71.4,29.98,NE,45,7.0,-999.0,75,-99.99,,,-99.99,meteohub,2013-08-31 23:14:00,
2013-08-31 19:19:00,80.1,71.8,29.98,NE,45,12.0,-999.0,76,-99.99,,,-99.99,meteohub,2013-08-31 23:19:00,
2013-08-31 19:24:00,80.1,71.4,29.99,NE,45,12.0,-999.0,75,-99.99,,,-99.99,meteohub,2013-08-31 23:24:00,
2013-08-31 19:29:00,79.0,70.3,29.99,NE,45,4.0,-999.0,75,-99.99,,,-99.99,meteohub,2013-08-31 23:29:00,
2013-08-31 19:34:00,80.1,73.8,29.98,NE,45,6.0,-999.0,81,-99.99,,,-99.99,meteohub,2013-08-31 23:34:00,
2013-08-31 19:39:00,80.1,71.8,29.98,SE,135,5.0,-999.0,76,-99.99,,,-99.99,meteohub,2013-08-31 23:39:00,
2013-08-31 19:44:00,80.1,71.8,29.98,SE,135,7.0,-999.0,76,-99.99,,,-99.99,meteohub,2013-08-31 23:44:00,
2013-08-31 19:49:00,80.1,73.0,29.98,SE,135,5.0,-999.0,79,-99.99,,,-99.99,meteohub,2013-08-31 23:49:00,
2013-08-31 19:54:00,80.1,73.8,29.99,SE,135,10.0,-999.0,81,-99.99,,,-99.99,meteohub,2013-08-31 23:54:00,
2013-08-31 19:59:00,80.1,71.4,29.99,SE,135,10.0,-999.0,75,-99.99,,,-99.99,meteohub,2013-08-31 23:59:00,
2013-08-31 20:05:00,80.1,71.4,30.00,SE,135,9.0,-999.0,75,-99.99,,,-99.99,meteohub,2013-09-01 00:05:00,
2013-08-31 20:10:00,80.1,71.1,30.00,SE,135,10.0,-999.0,74,-99.99,,,-99.99,meteohub,2013-09-01 00:10:00,
2013-08-31 20:15:00,80.1,71.1,30.00,SE,135,9.0,-999.0,74,-99.99,,,-99.99,meteohub,2013-09-01 00:15:00,
2013-08-31 20:20:00,80.1,71.8,29.99,SE,135,7.0,-999.0,76,-99.99,,,-99.99,meteohub,2013-09-01 00:20:00,
2013-08-31 20:25:00,80.1,71.8,30.00,SE,135,10.0,-999.0,76,-99.99,,,-99.99,meteohub,2013-09-01 00:25:00,
2013-08-31 20:30:00,80.1,73.8,30.00,SE,135,9.0,-999.0,81,-99.99,,,-99.99,meteohub,2013-09-01 00:30:00,
2013-08-31 20:35:00,79.0,70.7,30.00,SE,135,6.0,-999.0,76,-99.99,,,-99.99,meteohub,2013-09-01 00:35:00,
2013-08-31 20:40:00,79.0,71.1,29.99,NE,45,8.0,-999.0,77,-99.99,,,-99.99,meteohub,2013-09-01 00:40:00,
2013-08-31 20:45:00,79.0,72.0,29.99,SE,135,7.0,-999.0,79,-99.99,,,-99.99,meteohub,2013-09-01 00:45:00,
2013-08-31 20:50:00,79.0,73.4,29.99,SE,135,4.0,-999.0,83,-99.99,,,-99.99,meteohub,2013-09-01 00:50:00,
2013-08-31 20:55:00,79.0,72.0,29.99,NE,45,7.0,-999.0,79,-99.99,,,-99.99,meteohub,2013-09-01 00:55:00,
2013-08-31 21:01:00,79.0,72.0,29.99,SE,135,6.0,-999.0,79,-99.99,,,-99.99,meteohub,2013-09-01 01:01:00,
2013-08-31 21:06:00,79.0,72.0,30.00,NE,45,6.0,-999.0,79,-99.99,,,-99.99,meteohub,2013-09-01 01:06:00,
2013-08-31 21:11:00,79.0,72.7,30.00,NE,45,8.0,-999.0,81,-99.99,,,-99.99,meteohub,2013-09-01 01:11:00,
2013-08-31 21:16:00,79.0,72.7,30.00,SE,135,10.0,-999.0,81,-99.99,,,-99.99,meteohub,2013-09-01 01:16:00,
2013-08-31 21:21:00,79.0,73.0,30.00,SE,135,10.0,-999.0,82,-99.99,,,-99.99,meteohub,2013-09-01 01:21:00,
2013-08-31 21:26:00,80.1,75.9,30.00,SE,135,8.0,-999.0,87,-99.99,,,-99.99,meteohub,2013-09-01 01:26:00,
2013-08-31 21:31:00,80.1,74.1,30.00,SE,135,7.0,-999.0,82,-99.99,,,-99.99,meteohub,2013-09-01 01:31:00,
2013-08-31 21:36:00,80.1,73.8,30.00,SE,135,11.0,-999.0,81,-99.99,,,-99.99,meteohub,2013-09-01 01:36:00,
2013-08-31 21:41:00,80.1,73.8,30.01,SE,135,11.0,-999.0,81,-99.99,,,-99.99,meteohub,2013-09-01 01:41:00,
2013-08-31 21:46:00,80.1,75.6,30.01,SE,135,8.0,-999.0,86,-99.99,,,-99.99,meteohub,2013-09-01 01:46:00,
2013-08-31 21:52:00,80.1,73.8,30.01,SE,135,11.0,-999.0,81,-99.99,,,-99.99,meteohub,2013-09-01 01:52:00,
2013-08-31 21:57:00,80.1,73.8,30.01,SE,135,7.0,-999.0,81,-99.99,,,-99.99,meteohub,2013-09-01 01:57:00,
2013-08-31 22:02:00,80.1,74.5,30.01,SE,135,9.0,-999.0,83,-99.99,,,-99.99,meteohub,2013-09-01 02:02:00,
2013-08-31 22:07:00,80.1,74.5,30.01,NE,45,4.0,-999.0,83,-99.99,,,-99.99,meteohub,2013-09-01 02:07:00,
2013-08-31 22:12:00,80.1,74.5,30.01,SE,135,6.0,-999.0,83,-99.99,,,-99.99,meteohub,2013-09-01 02:12:00,
2013-08-31 22:17:00,80.1,74.5,30.01,NE,45,5.0,-999.0,83,-99.99,,,-99.99,meteohub,2013-09-01 02:17:00,
2013-08-31 22:22:00,79.0,75.2,30.01,NE,45,3.0,-999.0,88,-99.99,,,-99.99,meteohub,2013-09-01 02:22:00,
2013-08-31 22:27:00,79.0,73.8,30.01,NE,45,4.0,-999.0,84,-99.99,,,-99.99,meteohub,2013-09-01 02:27:00,
2013-08-31 22:32:00,79.0,74.1,30.01,NE,45,5.0,-999.0,85,-99.99,,,-99.99,meteohub,2013-09-01 02:32:00,
2013-08-31 22:37:00,78.1,73.6,30.01,NE,45,3.0,-999.0,86,-99.99,,,-99.99,meteohub,2013-09-01 02:37:00,
2013-08-31 22:42:00,78.1,73.9,30.01,NE,45,4.0,-999.0,87,-99.99,,,-99.99,meteohub,2013-09-01 02:42:00,
2013-08-31 22:47:00,78.1,73.6,30.01,NE,45,3.0,-999.0,86,-99.99,,,-99.99,meteohub,2013-09-01 02:47:00,
2013-08-31 22:52:00,78.1,73.9,30.01,NE,45,3.0,-999.0,87,-99.99,,,-99.99,meteohub,2013-09-01 02:52:00,
2013-08-31 22:57:00,78.1,75.6,30.01,NE,45,5.0,-999.0,92,-99.99,,,-99.99,meteohub,2013-09-01 02:57:00,
2013-08-31 23:02:00,78.1,73.9,30.01,NE,45,4.0,-999.0,87,-99.99,,,-99.99,meteohub,2013-09-01 03:02:00,
2013-08-31 23:07:00,78.1,73.9,30.01,NE,45,5.0,-999.0,87,-99.99,,,-99.99,meteohub,2013-09-01 03:07:00,
2013-08-31 23:12:00,78.1,73.9,30.01,NE,45,4.0,-999.0,87,-99.99,,,-99.99,meteohub,2013-09-01 03:12:00,
2013-08-31 23:17:00,78.1,74.3,30.01,NE,45,7.0,-999.0,88,-99.99,,,-99.99,meteohub,2013-09-01 03:17:00,
2013-08-31 23:22:00,78.1,73.9,30.01,NE,45,9.0,-999.0,87,-99.99,,,-99.99,meteohub,2013-09-01 03:22:00,
2013-08-31 23:27:00,78.1,73.9,30.01,NE,45,5.0,-999.0,87,-99.99,,,-99.99,meteohub,2013-09-01 03:27:00,
2013-08-31 23:32:00,78.1,75.9,30.01,NE,45,7.0,-999.0,93,-99.99,,,-99.99,meteohub,2013-09-01 03:32:00,
2013-08-31 23:37:00,78.1,74.3,30.01,NE,45,6.0,-999.0,88,-99.99,,,-99.99,meteohub,2013-09-01 03:37:00,
2013-08-31 23:42:00,78.1,74.3,30.01,NE,45,6.0,-999.0,88,-99.99,,,-99.99,meteohub,2013-09-01 03:42:00,
2013-08-31 23:47:00,78.1,74.3,30.01,NE,45,7.0,-999.0,88,-99.99,,,-99.99,meteohub,2013-09-01 03:47:00,
2013-08-31 23:52:00,78.1,74.3,30.01,NE,45,6.0,-999.0,88,-99.99,,,-99.99,meteohub,2013-09-01 03:52:00,
2013-08-31 23:57:00,78.1,74.3,30.01,NE,45,4.0,-999.0,88,-99.99,,,-99.99,meteohub,2013-09-01 03:57:00,